owner,sensor,date,latitude,longitude,vertical_datum,sea_water_practical_salinity,qcFlag 
ENP,ioos.station.NOAA.NDBC:LBRF1:1,2014-03-01T01:00:00Z,25.4840,-81.1330,1.5,17.5,11111222 
ENP,ioos.station.NOAA.NDBC:LBRF1:1,2014-03-01T05:00:00Z,25.4840,-81.1330,1.5,17.8,11111222 
ENP,ioos.station.NOAA.NDBC:LBRF1:1,2014-03-01T07:00:00Z,25.4840,-81.1330,1.5,28.1,11111222 
ENP,ioos.station.NOAA.NDBC:LBRF1:1,2014-03-01T08:00:00Z,25.4840,-81.1330,1.5,28.8,11111222 
ENP,ioos.station.NOAA.NDBC:LBRF1:1,2014-03-01T09:00:00Z,25.4840,-81.1330,1.5,28.6,11111222 
ENP,ioos.station.NOAA.NDBC:LBRF1:1,2014-03-01T11:00:00Z,25.4840,-81.1330,1.5,27.4,11111222 
ENP,ioos.station.NOAA.NDBC:LBRF1:1,2014-03-01T12:00:00Z,25.4840,-81.1330,1.5,26.3,11111222 
ENP,ioos.station.NOAA.NDBC:LBRF1:1,2014-03-01T13:00:00Z,25.4840,-81.1330,1.5,20.4,11111222 
ENP,ioos.station.NOAA.NDBC:LBRF1:1,2014-03-01T15:00:00Z,25.4840,-81.1330,1.5,11.5,11111222 
ENP,ioos.station.NOAA.NDBC:LBRF1:1,2014-03-01T16:00:00Z,25.4840,-81.1330,1.5,10.2,11111222 
ENP,ioos.station.NOAA.NDBC:LBRF1:1,2014-03-01T17:00:00Z,25.4840,-81.1330,1.5,10.4,11111222 
ENP,ioos.station.NOAA.NDBC:LBRF1:1,2014-03-01T19:00:00Z,25.4840,-81.1330,1.5,24.9,11111222 
ENP,ioos.station.NOAA.NDBC:LBRF1:1,2014-03-01T20:00:00Z,25.4840,-81.1330,1.5,27.0,11111222 
ENP,ioos.station.NOAA.NDBC:LBRF1:1,2014-03-01T21:00:00Z,25.4840,-81.1330,1.5,27.7,11111222 
ENP,ioos.station.NOAA.NDBC:LBRF1:1,2014-03-01T23:00:00Z,25.4840,-81.1330,1.5,26.8,11111222 
ENP,ioos.station.NOAA.NDBC:LBRF1:1,2014-03-02T00:00:00Z,25.4840,-81.1330,1.5,23.7,11111222 
ENP,ioos.station.NOAA.NDBC:LBRF1:1,2014-03-02T02:00:00Z,25.4840,-81.1330,1.5,11.1,11111222 
ENP,ioos.station.NOAA.NDBC:LBRF1:1,2014-03-02T04:00:00Z,25.4840,-81.1330,1.5,9.1,11111222 
ENP,ioos.station.NOAA.NDBC:LBRF1:1,2014-03-02T05:00:00Z,25.4840,-81.1330,1.5,9.0,11111222 
ENP,ioos.station.NOAA.NDBC:LBRF1:1,2014-03-02T07:00:00Z,25.4840,-81.1330,1.5,23.3,11111222 
ENP,ioos.station.NOAA.NDBC:LBRF1:1,2014-03-02T08:00:00Z,25.4840,-81.1330,1.5,26.3,11111222 
ENP,ioos.station.NOAA.NDBC:LBRF1:1,2014-03-02T09:00:00Z,25.4840,-81.1330,1.5,27.2,11111222 
ENP,ioos.station.NOAA.NDBC:LBRF1:1,2014-03-02T11:00:00Z,25.4840,-81.1330,1.5,26.3,11111222 
ENP,ioos.station.NOAA.NDBC:LBRF1:1,2014-03-02T12:00:00Z,25.4840,-81.1330,1.5,23.9,11111222 
ENP,ioos.station.NOAA.NDBC:LBRF1:1,2014-03-02T13:00:00Z,25.4840,-81.1330,1.5,15.7,11111222 
ENP,ioos.station.NOAA.NDBC:LBRF1:1,2014-03-02T15:00:00Z,25.4840,-81.1330,1.5,8.6,11111222 
ENP,ioos.station.NOAA.NDBC:LBRF1:1,2014-03-02T16:00:00Z,25.4840,-81.1330,1.5,8.2,11111222 
ENP,ioos.station.NOAA.NDBC:LBRF1:1,2014-03-02T17:00:00Z,25.4840,-81.1330,1.5,7.8,11111222 
ENP,ioos.station.NOAA.NDBC:LBRF1:1,2014-03-02T18:00:00Z,25.4840,-81.1330,1.5,8.3,11111222 
ENP,ioos.station.NOAA.NDBC:LBRF1:1,2014-03-02T19:00:00Z,25.4840,-81.1330,1.5,19.9,11111222 
ENP,ioos.station.NOAA.NDBC:LBRF1:1,2014-03-02T20:00:00Z,25.4840,-81.1330,1.5,24.9,11111222 
ENP,ioos.station.NOAA.NDBC:LBRF1:1,2014-03-02T21:00:00Z,25.4840,-81.1330,1.5,24.8,11111222 
ENP,ioos.station.NOAA.NDBC:LBRF1:1,2014-03-02T23:00:00Z,25.4840,-81.1330,1.5,27.1,11111222 
ENP,ioos.station.NOAA.NDBC:LBRF1:1,2014-03-03T00:00:00Z,25.4840,-81.1330,1.5,24.4,11111222 
ENP,ioos.station.NOAA.NDBC:LBRF1:1,2014-03-03T01:00:00Z,25.4840,-81.1330,1.5,22.9,11111222 
ENP,ioos.station.NOAA.NDBC:LBRF1:1,2014-03-03T04:00:00Z,25.4840,-81.1330,1.5,8.0,11111222 
ENP,ioos.station.NOAA.NDBC:LBRF1:1,2014-03-03T05:00:00Z,25.4840,-81.1330,1.5,7.7,11111222 
ENP,ioos.station.NOAA.NDBC:LBRF1:1,2014-03-03T07:00:00Z,25.4840,-81.1330,1.5,16.2,11111222 
ENP,ioos.station.NOAA.NDBC:LBRF1:1,2014-03-03T08:00:00Z,25.4840,-81.1330,1.5,24.2,11111222 
ENP,ioos.station.NOAA.NDBC:LBRF1:1,2014-03-03T09:00:00Z,25.4840,-81.1330,1.5,25.6,11111222 
ENP,ioos.station.NOAA.NDBC:LBRF1:1,2014-03-03T11:00:00Z,25.4840,-81.1330,1.5,25.7,11111222 
ENP,ioos.station.NOAA.NDBC:LBRF1:1,2014-03-03T12:00:00Z,25.4840,-81.1330,1.5,25.2,11111222 
ENP,ioos.station.NOAA.NDBC:LBRF1:1,2014-03-03T13:00:00Z,25.4840,-81.1330,1.5,24.0,11111222 
ENP,ioos.station.NOAA.NDBC:LBRF1:1,2014-03-03T15:00:00Z,25.4840,-81.1330,1.5,11.9,11111222 
ENP,ioos.station.NOAA.NDBC:LBRF1:1,2014-03-03T16:00:00Z,25.4840,-81.1330,1.5,8.5,11111222 
ENP,ioos.station.NOAA.NDBC:LBRF1:1,2014-03-03T17:00:00Z,25.4840,-81.1330,1.5,8.0,11111222 
ENP,ioos.station.NOAA.NDBC:LBRF1:1,2014-03-03T18:00:00Z,25.4840,-81.1330,1.5,8.3,11111222 
ENP,ioos.station.NOAA.NDBC:LBRF1:1,2014-03-03T19:00:00Z,25.4840,-81.1330,1.5,19.0,11111222 
ENP,ioos.station.NOAA.NDBC:LBRF1:1,2014-03-03T20:00:00Z,25.4840,-81.1330,1.5,24.4,11111222 
ENP,ioos.station.NOAA.NDBC:LBRF1:1,2014-03-03T21:00:00Z,25.4840,-81.1330,1.5,25.6,11111222 
ENP,ioos.station.NOAA.NDBC:LBRF1:1,2014-03-03T23:00:00Z,25.4840,-81.1330,1.5,26.8,11111222 
ENP,ioos.station.NOAA.NDBC:LBRF1:1,2014-03-04T00:00:00Z,25.4840,-81.1330,1.5,25.4,11111222 
ENP,ioos.station.NOAA.NDBC:LBRF1:1,2014-03-04T01:00:00Z,25.4840,-81.1330,1.5,24.7,11111222 
ENP,ioos.station.NOAA.NDBC:LBRF1:1,2014-03-04T04:00:00Z,25.4840,-81.1330,1.5,12.0,11111222 
ENP,ioos.station.NOAA.NDBC:LBRF1:1,2014-03-04T05:00:00Z,25.4840,-81.1330,1.5,9.3,11111222 
ENP,ioos.station.NOAA.NDBC:LBRF1:1,2014-03-04T07:00:00Z,25.4840,-81.1330,1.5,10.2,11111222 
ENP,ioos.station.NOAA.NDBC:LBRF1:1,2014-03-04T08:00:00Z,25.4840,-81.1330,1.5,19.9,11111222 
ENP,ioos.station.NOAA.NDBC:LBRF1:1,2014-03-04T09:00:00Z,25.4840,-81.1330,1.5,24.6,11111222 
ENP,ioos.station.NOAA.NDBC:LBRF1:1,2014-03-04T10:00:00Z,25.4840,-81.1330,1.5,25.5,11111222 
ENP,ioos.station.NOAA.NDBC:LBRF1:1,2014-03-04T11:00:00Z,25.4840,-81.1330,1.5,26.1,11111222 
ENP,ioos.station.NOAA.NDBC:LBRF1:1,2014-03-04T13:00:00Z,25.4840,-81.1330,1.5,23.7,11111222 
ENP,ioos.station.NOAA.NDBC:LBRF1:1,2014-03-04T14:00:00Z,25.4840,-81.1330,1.5,22.6,11111222 
ENP,ioos.station.NOAA.NDBC:LBRF1:1,2014-03-04T15:00:00Z,25.4840,-81.1330,1.5,15.8,11111222 
ENP,ioos.station.NOAA.NDBC:LBRF1:1,2014-03-04T16:00:00Z,25.4840,-81.1330,1.5,9.9,11111222 
ENP,ioos.station.NOAA.NDBC:LBRF1:1,2014-03-04T17:00:00Z,25.4840,-81.1330,1.5,8.3,11111222 
ENP,ioos.station.NOAA.NDBC:LBRF1:1,2014-03-04T18:00:00Z,25.4840,-81.1330,1.5,8.1,11111222 
ENP,ioos.station.NOAA.NDBC:LBRF1:1,2014-03-04T19:00:00Z,25.4840,-81.1330,1.5,12.4,11111222 
ENP,ioos.station.NOAA.NDBC:LBRF1:1,2014-03-04T20:00:00Z,25.4840,-81.1330,1.5,21.9,11111222 
ENP,ioos.station.NOAA.NDBC:LBRF1:1,2014-03-04T21:00:00Z,25.4840,-81.1330,1.5,24.9,11111222 
ENP,ioos.station.NOAA.NDBC:LBRF1:1,2014-03-04T22:00:00Z,25.4840,-81.1330,1.5,26.4,11111222 
ENP,ioos.station.NOAA.NDBC:LBRF1:1,2014-03-05T00:00:00Z,25.4840,-81.1330,1.5,26.9,11111222 
ENP,ioos.station.NOAA.NDBC:LBRF1:1,2014-03-05T02:00:00Z,25.4840,-81.1330,1.5,24.6,11111222 
ENP,ioos.station.NOAA.NDBC:LBRF1:1,2014-03-05T04:00:00Z,25.4840,-81.1330,1.5,13.9,11111222 
ENP,ioos.station.NOAA.NDBC:LBRF1:1,2014-03-05T05:00:00Z,25.4840,-81.1330,1.5,9.8,11111222 
ENP,ioos.station.NOAA.NDBC:LBRF1:1,2014-03-05T06:00:00Z,25.4840,-81.1330,1.5,8.1,11111222 
ENP,ioos.station.NOAA.NDBC:LBRF1:1,2014-03-05T07:00:00Z,25.4840,-81.1330,1.5,7.9,11111222 
ENP,ioos.station.NOAA.NDBC:LBRF1:1,2014-03-05T08:00:00Z,25.4840,-81.1330,1.5,10.9,11111222 
ENP,ioos.station.NOAA.NDBC:LBRF1:1,2014-03-05T09:00:00Z,25.4840,-81.1330,1.5,20.3,11111222 
ENP,ioos.station.NOAA.NDBC:LBRF1:1,2014-03-05T10:00:00Z,25.4840,-81.1330,1.5,24.2,11111222 
ENP,ioos.station.NOAA.NDBC:LBRF1:1,2014-03-05T11:00:00Z,25.4840,-81.1330,1.5,25.4,11111222 
ENP,ioos.station.NOAA.NDBC:LBRF1:1,2014-03-05T12:00:00Z,25.4840,-81.1330,1.5,25.6,11111222 
ENP,ioos.station.NOAA.NDBC:LBRF1:1,2014-03-05T13:00:00Z,25.4840,-81.1330,1.5,25.4,11111222 
ENP,ioos.station.NOAA.NDBC:LBRF1:1,2014-03-05T14:00:00Z,25.4840,-81.1330,1.5,23.3,11111222 
ENP,ioos.station.NOAA.NDBC:LBRF1:1,2014-03-05T15:00:00Z,25.4840,-81.1330,1.5,18.4,11111222 
ENP,ioos.station.NOAA.NDBC:LBRF1:1,2014-03-05T16:00:00Z,25.4840,-81.1330,1.5,12.2,11111222 
ENP,ioos.station.NOAA.NDBC:LBRF1:1,2014-03-05T17:00:00Z,25.4840,-81.1330,1.5,8.8,11111222 
ENP,ioos.station.NOAA.NDBC:LBRF1:1,2014-03-05T18:00:00Z,25.4840,-81.1330,1.5,8.2,11111222 
ENP,ioos.station.NOAA.NDBC:LBRF1:1,2014-03-05T19:00:00Z,25.4840,-81.1330,1.5,12.6,11111222 
ENP,ioos.station.NOAA.NDBC:LBRF1:1,2014-03-05T20:00:00Z,25.4840,-81.1330,1.5,19.9,11111222 
ENP,ioos.station.NOAA.NDBC:LBRF1:1,2014-03-05T21:00:00Z,25.4840,-81.1330,1.5,24.3,11111222 
ENP,ioos.station.NOAA.NDBC:LBRF1:1,2014-03-05T22:00:00Z,25.4840,-81.1330,1.5,25.8,11111222 
ENP,ioos.station.NOAA.NDBC:LBRF1:1,2014-03-05T23:00:00Z,25.4840,-81.1330,1.5,26.8,11111222 
ENP,ioos.station.NOAA.NDBC:LBRF1:1,2014-03-06T00:00:00Z,25.4840,-81.1330,1.5,27.1,11111222 
ENP,ioos.station.NOAA.NDBC:LBRF1:1,2014-03-06T01:00:00Z,25.4840,-81.1330,1.5,27.1,11111222 
ENP,ioos.station.NOAA.NDBC:LBRF1:1,2014-03-06T02:00:00Z,25.4840,-81.1330,1.5,25.4,11111222 
ENP,ioos.station.NOAA.NDBC:LBRF1:1,2014-03-06T04:00:00Z,25.4840,-81.1330,1.5,21.0,11111222 
ENP,ioos.station.NOAA.NDBC:LBRF1:1,2014-03-06T06:00:00Z,25.4840,-81.1330,1.5,10.5,11111222 
ENP,ioos.station.NOAA.NDBC:LBRF1:1,2014-03-06T07:00:00Z,25.4840,-81.1330,1.5,8.9,11111222 
ENP,ioos.station.NOAA.NDBC:LBRF1:1,2014-03-06T08:00:00Z,25.4840,-81.1330,1.5,8.8,11111222 
ENP,ioos.station.NOAA.NDBC:LBRF1:1,2014-03-06T09:00:00Z,25.4840,-81.1330,1.5,13.0,11111222 
ENP,ioos.station.NOAA.NDBC:LBRF1:1,2014-03-06T10:00:00Z,25.4840,-81.1330,1.5,20.1,11111222 
ENP,ioos.station.NOAA.NDBC:LBRF1:1,2014-03-06T11:00:00Z,25.4840,-81.1330,1.5,23.5,11111222 
ENP,ioos.station.NOAA.NDBC:LBRF1:1,2014-03-06T12:00:00Z,25.4840,-81.1330,1.5,24.4,11111222 
ENP,ioos.station.NOAA.NDBC:LBRF1:1,2014-03-06T13:00:00Z,25.4840,-81.1330,1.5,24.8,11111222 
ENP,ioos.station.NOAA.NDBC:LBRF1:1,2014-03-06T14:00:00Z,25.4840,-81.1330,1.5,22.1,11111222 
ENP,ioos.station.NOAA.NDBC:LBRF1:1,2014-03-06T15:00:00Z,25.4840,-81.1330,1.5,18.7,11111222 
ENP,ioos.station.NOAA.NDBC:LBRF1:1,2014-03-06T16:00:00Z,25.4840,-81.1330,1.5,14.1,11111222 
ENP,ioos.station.NOAA.NDBC:LBRF1:1,2014-03-06T17:00:00Z,25.4840,-81.1330,1.5,10.7,11111222 
ENP,ioos.station.NOAA.NDBC:LBRF1:1,2014-03-06T18:00:00Z,25.4840,-81.1330,1.5,9.7,11111222 
ENP,ioos.station.NOAA.NDBC:LBRF1:1,2014-03-06T19:00:00Z,25.4840,-81.1330,1.5,14.6,11111222 
ENP,ioos.station.NOAA.NDBC:LBRF1:1,2014-03-06T20:00:00Z,25.4840,-81.1330,1.5,20.3,11111222 
ENP,ioos.station.NOAA.NDBC:LBRF1:1,2014-03-06T22:00:00Z,25.4840,-81.1330,1.5,27.1,11111222 
ENP,ioos.station.NOAA.NDBC:LBRF1:1,2014-03-06T23:00:00Z,25.4840,-81.1330,1.5,27.6,11111222 
ENP,ioos.station.NOAA.NDBC:LBRF1:1,2014-03-07T00:00:00Z,25.4840,-81.1330,1.5,27.8,11111222 
ENP,ioos.station.NOAA.NDBC:LBRF1:1,2014-03-07T01:00:00Z,25.4840,-81.1330,1.5,27.8,11111222 
ENP,ioos.station.NOAA.NDBC:LBRF1:1,2014-03-07T02:00:00Z,25.4840,-81.1330,1.5,26.8,11111222 
ENP,ioos.station.NOAA.NDBC:LBRF1:1,2014-03-07T04:00:00Z,25.4840,-81.1330,1.5,26.6,11111222 
ENP,ioos.station.NOAA.NDBC:LBRF1:1,2014-03-07T06:00:00Z,25.4840,-81.1330,1.5,24.2,11111222 
ENP,ioos.station.NOAA.NDBC:LBRF1:1,2014-03-07T07:00:00Z,25.4840,-81.1330,1.5,22.7,11111222 
ENP,ioos.station.NOAA.NDBC:LBRF1:1,2014-03-07T08:00:00Z,25.4840,-81.1330,1.5,21.9,11111222 
ENP,ioos.station.NOAA.NDBC:LBRF1:1,2014-03-07T09:00:00Z,25.4840,-81.1330,1.5,22.7,11111222 
ENP,ioos.station.NOAA.NDBC:LBRF1:1,2014-03-07T10:00:00Z,25.4840,-81.1330,1.5,24.8,11111222 
ENP,ioos.station.NOAA.NDBC:LBRF1:1,2014-03-07T11:00:00Z,25.4840,-81.1330,1.5,26.1,11111222 
ENP,ioos.station.NOAA.NDBC:LBRF1:1,2014-03-07T12:00:00Z,25.4840,-81.1330,1.5,26.5,11111222 
ENP,ioos.station.NOAA.NDBC:LBRF1:1,2014-03-07T13:00:00Z,25.4840,-81.1330,1.5,26.6,11111222 
ENP,ioos.station.NOAA.NDBC:LBRF1:1,2014-03-07T14:00:00Z,25.4840,-81.1330,1.5,26.6,11111222 
ENP,ioos.station.NOAA.NDBC:LBRF1:1,2014-03-07T15:00:00Z,25.4840,-81.1330,1.5,26.6,11111222 
ENP,ioos.station.NOAA.NDBC:LBRF1:1,2014-03-07T16:00:00Z,25.4840,-81.1330,1.5,26.6,11111222 
ENP,ioos.station.NOAA.NDBC:LBRF1:1,2014-03-07T17:00:00Z,25.4840,-81.1330,1.5,26.6,11111222 
ENP,ioos.station.NOAA.NDBC:LBRF1:1,2014-03-07T18:00:00Z,25.4840,-81.1330,1.5,26.1,11111222 
ENP,ioos.station.NOAA.NDBC:LBRF1:1,2014-03-07T19:00:00Z,25.4840,-81.1330,1.5,26.1,11111222 
ENP,ioos.station.NOAA.NDBC:LBRF1:1,2014-03-07T20:00:00Z,25.4840,-81.1330,1.5,26.0,11111222 
ENP,ioos.station.NOAA.NDBC:LBRF1:1,2014-03-07T21:00:00Z,25.4840,-81.1330,1.5,26.2,11111222 
ENP,ioos.station.NOAA.NDBC:LBRF1:1,2014-03-07T22:00:00Z,25.4840,-81.1330,1.5,26.4,11111222 
ENP,ioos.station.NOAA.NDBC:LBRF1:1,2014-03-07T23:00:00Z,25.4840,-81.1330,1.5,26.3,11111222 
ENP,ioos.station.NOAA.NDBC:LBRF1:1,2014-03-08T00:00:00Z,25.4840,-81.1330,1.5,26.3,11111222 
ENP,ioos.station.NOAA.NDBC:LBRF1:1,2014-03-08T02:00:00Z,25.4840,-81.1330,1.5,26.4,11111222 
ENP,ioos.station.NOAA.NDBC:LBRF1:1,2014-03-08T04:00:00Z,25.4840,-81.1330,1.5,26.3,11111222 
ENP,ioos.station.NOAA.NDBC:LBRF1:1,2014-03-08T06:00:00Z,25.4840,-81.1330,1.5,23.0,11111222 
ENP,ioos.station.NOAA.NDBC:LBRF1:1,2014-03-08T07:00:00Z,25.4840,-81.1330,1.5,18.7,11111222 
ENP,ioos.station.NOAA.NDBC:LBRF1:1,2014-03-08T08:00:00Z,25.4840,-81.1330,1.5,14.9,11111222 
ENP,ioos.station.NOAA.NDBC:LBRF1:1,2014-03-08T09:00:00Z,25.4840,-81.1330,1.5,12.6,11111222 
ENP,ioos.station.NOAA.NDBC:LBRF1:1,2014-03-08T10:00:00Z,25.4840,-81.1330,1.5,11.3,11111222 
ENP,ioos.station.NOAA.NDBC:LBRF1:1,2014-03-08T11:00:00Z,25.4840,-81.1330,1.5,10.7,11111222 
ENP,ioos.station.NOAA.NDBC:LBRF1:1,2014-03-08T12:00:00Z,25.4840,-81.1330,1.5,10.6,11111222 
ENP,ioos.station.NOAA.NDBC:LBRF1:1,2014-03-08T13:00:00Z,25.4840,-81.1330,1.5,10.7,11111222 
ENP,ioos.station.NOAA.NDBC:LBRF1:1,2014-03-08T14:00:00Z,25.4840,-81.1330,1.5,12.9,11111222 
ENP,ioos.station.NOAA.NDBC:LBRF1:1,2014-03-08T15:00:00Z,25.4840,-81.1330,1.5,10.9,11111222 
ENP,ioos.station.NOAA.NDBC:LBRF1:1,2014-03-08T16:00:00Z,25.4840,-81.1330,1.5,9.6,11111222 
ENP,ioos.station.NOAA.NDBC:LBRF1:1,2014-03-08T17:00:00Z,25.4840,-81.1330,1.5,9.2,11111222 
ENP,ioos.station.NOAA.NDBC:LBRF1:1,2014-03-08T18:00:00Z,25.4840,-81.1330,1.5,8.5,11111222 
ENP,ioos.station.NOAA.NDBC:LBRF1:1,2014-03-08T19:00:00Z,25.4840,-81.1330,1.5,8.1,11111222 
ENP,ioos.station.NOAA.NDBC:LBRF1:1,2014-03-08T20:00:00Z,25.4840,-81.1330,1.5,7.9,11111222 
ENP,ioos.station.NOAA.NDBC:LBRF1:1,2014-03-08T21:00:00Z,25.4840,-81.1330,1.5,7.9,11111222 
ENP,ioos.station.NOAA.NDBC:LBRF1:1,2014-03-08T22:00:00Z,25.4840,-81.1330,1.5,8.6,11111222 
ENP,ioos.station.NOAA.NDBC:LBRF1:1,2014-03-09T00:00:00Z,25.4840,-81.1330,1.5,17.6,11111222 
ENP,ioos.station.NOAA.NDBC:LBRF1:1,2014-03-09T02:00:00Z,25.4840,-81.1330,1.5,20.9,11111222 
ENP,ioos.station.NOAA.NDBC:LBRF1:1,2014-03-09T05:00:00Z,25.4840,-81.1330,1.5,14.7,11111222 
ENP,ioos.station.NOAA.NDBC:LBRF1:1,2014-03-09T09:00:00Z,25.4840,-81.1330,1.5,7.5,11111222 
ENP,ioos.station.NOAA.NDBC:LBRF1:1,2014-03-09T10:00:00Z,25.4840,-81.1330,1.5,7.1,11111222 
ENP,ioos.station.NOAA.NDBC:LBRF1:1,2014-03-09T11:00:00Z,25.4840,-81.1330,1.5,6.8,11111222 
ENP,ioos.station.NOAA.NDBC:LBRF1:1,2014-03-09T12:00:00Z,25.4840,-81.1330,1.5,6.7,11111222 
ENP,ioos.station.NOAA.NDBC:LBRF1:1,2014-03-09T13:00:00Z,25.4840,-81.1330,1.5,6.8,11111222 
ENP,ioos.station.NOAA.NDBC:LBRF1:1,2014-03-09T14:00:00Z,25.4840,-81.1330,1.5,7.2,11111222 
ENP,ioos.station.NOAA.NDBC:LBRF1:1,2014-03-09T15:00:00Z,25.4840,-81.1330,1.5,8.1,11111222 
ENP,ioos.station.NOAA.NDBC:LBRF1:1,2014-03-09T16:00:00Z,25.4840,-81.1330,1.5,9.3,11111222 
ENP,ioos.station.NOAA.NDBC:LBRF1:1,2014-03-09T17:00:00Z,25.4840,-81.1330,1.5,8.9,11111222 
ENP,ioos.station.NOAA.NDBC:LBRF1:1,2014-03-09T18:00:00Z,25.4840,-81.1330,1.5,7.9,11111222 
ENP,ioos.station.NOAA.NDBC:LBRF1:1,2014-03-09T19:00:00Z,25.4840,-81.1330,1.5,7.5,11111222 
ENP,ioos.station.NOAA.NDBC:LBRF1:1,2014-03-09T20:00:00Z,25.4840,-81.1330,1.5,7.2,11111222 
ENP,ioos.station.NOAA.NDBC:LBRF1:1,2014-03-09T21:00:00Z,25.4840,-81.1330,1.5,6.9,11111222 
ENP,ioos.station.NOAA.NDBC:LBRF1:1,2014-03-09T22:00:00Z,25.4840,-81.1330,1.5,7.5,11111222 
ENP,ioos.station.NOAA.NDBC:LBRF1:1,2014-03-09T23:00:00Z,25.4840,-81.1330,1.5,7.9,11111222 
ENP,ioos.station.NOAA.NDBC:LBRF1:1,2014-03-10T00:00:00Z,25.4840,-81.1330,1.5,12.3,11111222 
ENP,ioos.station.NOAA.NDBC:LBRF1:1,2014-03-10T01:00:00Z,25.4840,-81.1330,1.5,17.4,11111222 
ENP,ioos.station.NOAA.NDBC:LBRF1:1,2014-03-10T02:00:00Z,25.4840,-81.1330,1.5,19.5,11111222 
ENP,ioos.station.NOAA.NDBC:LBRF1:1,2014-03-10T04:00:00Z,25.4840,-81.1330,1.5,22.9,11111222 
ENP,ioos.station.NOAA.NDBC:LBRF1:1,2014-03-10T05:00:00Z,25.4840,-81.1330,1.5,19.2,11111222 
ENP,ioos.station.NOAA.NDBC:LBRF1:1,2014-03-10T07:00:00Z,25.4840,-81.1330,1.5,13.2,11111222 
ENP,ioos.station.NOAA.NDBC:LBRF1:1,2014-03-10T08:00:00Z,25.4840,-81.1330,1.5,9.8,11111222 
ENP,ioos.station.NOAA.NDBC:LBRF1:1,2014-03-10T09:00:00Z,25.4840,-81.1330,1.5,7.2,11111222 
ENP,ioos.station.NOAA.NDBC:LBRF1:1,2014-03-10T10:00:00Z,25.4840,-81.1330,1.5,6.5,11111222 
ENP,ioos.station.NOAA.NDBC:LBRF1:1,2014-03-10T11:00:00Z,25.4840,-81.1330,1.5,6.2,11111222 
ENP,ioos.station.NOAA.NDBC:LBRF1:1,2014-03-10T12:00:00Z,25.4840,-81.1330,1.5,6.1,11111222 
ENP,ioos.station.NOAA.NDBC:LBRF1:1,2014-03-10T14:00:00Z,25.4840,-81.1330,1.5,6.3,11111222 
ENP,ioos.station.NOAA.NDBC:LBRF1:1,2014-03-10T15:00:00Z,25.4840,-81.1330,1.5,10.2,11111222 
ENP,ioos.station.NOAA.NDBC:LBRF1:1,2014-03-10T16:00:00Z,25.4840,-81.1330,1.5,14.1,11111222 
ENP,ioos.station.NOAA.NDBC:LBRF1:1,2014-03-10T17:00:00Z,25.4840,-81.1330,1.5,17.3,11111222 
ENP,ioos.station.NOAA.NDBC:LBRF1:1,2014-03-10T18:00:00Z,25.4840,-81.1330,1.5,18.4,11111222 
ENP,ioos.station.NOAA.NDBC:LBRF1:1,2014-03-10T19:00:00Z,25.4840,-81.1330,1.5,17.5,11111222 
ENP,ioos.station.NOAA.NDBC:LBRF1:1,2014-03-10T20:00:00Z,25.4840,-81.1330,1.5,14.5,11111222 
ENP,ioos.station.NOAA.NDBC:LBRF1:1,2014-03-10T21:00:00Z,25.4840,-81.1330,1.5,11.0,11111222 
ENP,ioos.station.NOAA.NDBC:LBRF1:1,2014-03-10T23:00:00Z,25.4840,-81.1330,1.5,10.6,11111222 
ENP,ioos.station.NOAA.NDBC:LBRF1:1,2014-03-11T00:00:00Z,25.4840,-81.1330,1.5,14.1,11111222 
ENP,ioos.station.NOAA.NDBC:LBRF1:1,2014-03-11T02:00:00Z,25.4840,-81.1330,1.5,20.3,11111222 
ENP,ioos.station.NOAA.NDBC:LBRF1:1,2014-03-11T04:00:00Z,25.4840,-81.1330,1.5,23.7,11111222 
ENP,ioos.station.NOAA.NDBC:LBRF1:1,2014-03-11T05:00:00Z,25.4840,-81.1330,1.5,24.5,11111222 
ENP,ioos.station.NOAA.NDBC:LBRF1:1,2014-03-11T07:00:00Z,25.4840,-81.1330,1.5,22.4,11111222 
ENP,ioos.station.NOAA.NDBC:LBRF1:1,2014-03-11T08:00:00Z,25.4840,-81.1330,1.5,20.5,11111222 
ENP,ioos.station.NOAA.NDBC:LBRF1:1,2014-03-11T09:00:00Z,25.4840,-81.1330,1.5,17.5,11111222 
ENP,ioos.station.NOAA.NDBC:LBRF1:1,2014-03-11T10:00:00Z,25.4840,-81.1330,1.5,13.3,11111222 
ENP,ioos.station.NOAA.NDBC:LBRF1:1,2014-03-11T11:00:00Z,25.4840,-81.1330,1.5,9.3,11111222 
ENP,ioos.station.NOAA.NDBC:LBRF1:1,2014-03-11T12:00:00Z,25.4840,-81.1330,1.5,7.6,11111222 
ENP,ioos.station.NOAA.NDBC:LBRF1:1,2014-03-11T13:00:00Z,25.4840,-81.1330,1.5,7.2,11111222 
ENP,ioos.station.NOAA.NDBC:LBRF1:1,2014-03-11T14:00:00Z,25.4840,-81.1330,1.5,7.3,11111222 
ENP,ioos.station.NOAA.NDBC:LBRF1:1,2014-03-11T15:00:00Z,25.4840,-81.1330,1.5,11.6,11111222 
ENP,ioos.station.NOAA.NDBC:LBRF1:1,2014-03-11T16:00:00Z,25.4840,-81.1330,1.5,15.9,11111222 
ENP,ioos.station.NOAA.NDBC:LBRF1:1,2014-03-11T17:00:00Z,25.4840,-81.1330,1.5,20.2,11111222 
ENP,ioos.station.NOAA.NDBC:LBRF1:1,2014-03-11T18:00:00Z,25.4840,-81.1330,1.5,22.1,11111222 
ENP,ioos.station.NOAA.NDBC:LBRF1:1,2014-03-11T19:00:00Z,25.4840,-81.1330,1.5,22.6,11111222 
ENP,ioos.station.NOAA.NDBC:LBRF1:1,2014-03-11T20:00:00Z,25.4840,-81.1330,1.5,19.9,11111222 
ENP,ioos.station.NOAA.NDBC:LBRF1:1,2014-03-11T21:00:00Z,25.4840,-81.1330,1.5,17.0,11111222 
ENP,ioos.station.NOAA.NDBC:LBRF1:1,2014-03-11T22:00:00Z,25.4840,-81.1330,1.5,14.5,11111222 
ENP,ioos.station.NOAA.NDBC:LBRF1:1,2014-03-11T23:00:00Z,25.4840,-81.1330,1.5,11.8,11111222 
ENP,ioos.station.NOAA.NDBC:LBRF1:1,2014-03-12T00:00:00Z,25.4840,-81.1330,1.5,11.4,11111222 
ENP,ioos.station.NOAA.NDBC:LBRF1:1,2014-03-12T01:00:00Z,25.4840,-81.1330,1.5,14.9,11111222 
ENP,ioos.station.NOAA.NDBC:LBRF1:1,2014-03-12T02:00:00Z,25.4840,-81.1330,1.5,18.7,11111222 
ENP,ioos.station.NOAA.NDBC:LBRF1:1,2014-03-12T04:00:00Z,25.4840,-81.1330,1.5,24.1,11111222 
ENP,ioos.station.NOAA.NDBC:LBRF1:1,2014-03-12T05:00:00Z,25.4840,-81.1330,1.5,26.1,11111222 
ENP,ioos.station.NOAA.NDBC:LBRF1:1,2014-03-12T06:00:00Z,25.4840,-81.1330,1.5,26.8,11111222 
ENP,ioos.station.NOAA.NDBC:LBRF1:1,2014-03-12T07:00:00Z,25.4840,-81.1330,1.5,27.3,11111222 
ENP,ioos.station.NOAA.NDBC:LBRF1:1,2014-03-12T08:00:00Z,25.4840,-81.1330,1.5,27.2,11111222 
ENP,ioos.station.NOAA.NDBC:LBRF1:1,2014-03-12T09:00:00Z,25.4840,-81.1330,1.5,25.2,11111222 
ENP,ioos.station.NOAA.NDBC:LBRF1:1,2014-03-12T10:00:00Z,25.4840,-81.1330,1.5,23.6,11111222 
ENP,ioos.station.NOAA.NDBC:LBRF1:1,2014-03-12T11:00:00Z,25.4840,-81.1330,1.5,20.5,11111222 
ENP,ioos.station.NOAA.NDBC:LBRF1:1,2014-03-12T12:00:00Z,25.4840,-81.1330,1.5,16.3,11111222 
ENP,ioos.station.NOAA.NDBC:LBRF1:1,2014-03-12T13:00:00Z,25.4840,-81.1330,1.5,14.3,11111222 
ENP,ioos.station.NOAA.NDBC:LBRF1:1,2014-03-12T14:00:00Z,25.4840,-81.1330,1.5,15.7,11111222 
ENP,ioos.station.NOAA.NDBC:LBRF1:1,2014-03-12T15:00:00Z,25.4840,-81.1330,1.5,19.2,11111222 
ENP,ioos.station.NOAA.NDBC:LBRF1:1,2014-03-12T16:00:00Z,25.4840,-81.1330,1.5,24.0,11111222 
ENP,ioos.station.NOAA.NDBC:LBRF1:1,2014-03-12T17:00:00Z,25.4840,-81.1330,1.5,26.9,11111222 
ENP,ioos.station.NOAA.NDBC:LBRF1:1,2014-03-12T18:00:00Z,25.4840,-81.1330,1.5,28.0,11111222 
ENP,ioos.station.NOAA.NDBC:LBRF1:1,2014-03-12T19:00:00Z,25.4840,-81.1330,1.5,28.0,11111222 
ENP,ioos.station.NOAA.NDBC:LBRF1:1,2014-03-12T20:00:00Z,25.4840,-81.1330,1.5,27.4,11111222 
ENP,ioos.station.NOAA.NDBC:LBRF1:1,2014-03-12T21:00:00Z,25.4840,-81.1330,1.5,27.9,11111222 
ENP,ioos.station.NOAA.NDBC:LBRF1:1,2014-03-12T22:00:00Z,25.4840,-81.1330,1.5,27.3,11111222 
ENP,ioos.station.NOAA.NDBC:LBRF1:1,2014-03-12T23:00:00Z,25.4840,-81.1330,1.5,26.5,11111222 
ENP,ioos.station.NOAA.NDBC:LBRF1:1,2014-03-13T00:00:00Z,25.4840,-81.1330,1.5,26.1,11111222 
ENP,ioos.station.NOAA.NDBC:LBRF1:1,2014-03-13T02:00:00Z,25.4840,-81.1330,1.5,25.9,11111222 
ENP,ioos.station.NOAA.NDBC:LBRF1:1,2014-03-13T04:00:00Z,25.4840,-81.1330,1.5,27.7,11111222 
ENP,ioos.station.NOAA.NDBC:LBRF1:1,2014-03-13T05:00:00Z,25.4840,-81.1330,1.5,28.3,11111222 
ENP,ioos.station.NOAA.NDBC:LBRF1:1,2014-03-13T06:00:00Z,25.4840,-81.1330,1.5,27.7,11111222 
ENP,ioos.station.NOAA.NDBC:LBRF1:1,2014-03-13T07:00:00Z,25.4840,-81.1330,1.5,28.3,11111222 
ENP,ioos.station.NOAA.NDBC:LBRF1:1,2014-03-13T09:00:00Z,25.4840,-81.1330,1.5,28.3,11111222 
ENP,ioos.station.NOAA.NDBC:LBRF1:1,2014-03-13T10:00:00Z,25.4840,-81.1330,1.5,27.5,11111222 
ENP,ioos.station.NOAA.NDBC:LBRF1:1,2014-03-13T11:00:00Z,25.4840,-81.1330,1.5,26.3,11111222 
ENP,ioos.station.NOAA.NDBC:LBRF1:1,2014-03-13T12:00:00Z,25.4840,-81.1330,1.5,23.7,11111222 
ENP,ioos.station.NOAA.NDBC:LBRF1:1,2014-03-13T13:00:00Z,25.4840,-81.1330,1.5,20.6,11111222 
ENP,ioos.station.NOAA.NDBC:LBRF1:1,2014-03-13T14:00:00Z,25.4840,-81.1330,1.5,18.0,11111222 
ENP,ioos.station.NOAA.NDBC:LBRF1:1,2014-03-13T15:00:00Z,25.4840,-81.1330,1.5,17.5,11111222 
ENP,ioos.station.NOAA.NDBC:LBRF1:1,2014-03-13T16:00:00Z,25.4840,-81.1330,1.5,21.2,11111222 
ENP,ioos.station.NOAA.NDBC:LBRF1:1,2014-03-13T17:00:00Z,25.4840,-81.1330,1.5,23.5,11111222 
ENP,ioos.station.NOAA.NDBC:LBRF1:1,2014-03-13T18:00:00Z,25.4840,-81.1330,1.5,25.6,11111222 
ENP,ioos.station.NOAA.NDBC:LBRF1:1,2014-03-13T19:00:00Z,25.4840,-81.1330,1.5,26.6,11111222 
ENP,ioos.station.NOAA.NDBC:LBRF1:1,2014-03-13T20:00:00Z,25.4840,-81.1330,1.5,26.3,11111222 
ENP,ioos.station.NOAA.NDBC:LBRF1:1,2014-03-13T21:00:00Z,25.4840,-81.1330,1.5,24.2,11111222 
ENP,ioos.station.NOAA.NDBC:LBRF1:1,2014-03-13T22:00:00Z,25.4840,-81.1330,1.5,21.3,11111222 
ENP,ioos.station.NOAA.NDBC:LBRF1:1,2014-03-13T23:00:00Z,25.4840,-81.1330,1.5,17.0,11111222 
ENP,ioos.station.NOAA.NDBC:LBRF1:1,2014-03-14T00:00:00Z,25.4840,-81.1330,1.5,13.4,11111222 
ENP,ioos.station.NOAA.NDBC:LBRF1:1,2014-03-14T01:00:00Z,25.4840,-81.1330,1.5,11.1,11111222 